When you browse on this site, cookies collect data to enhance your experience and personalize the content and advertising you see.
Visit our Privacy Policy to learn more. By continuing to use the site, you agree to this use of cookies and data.
  • In Deutschland
  • Länderverzeichnis
  • Für 7 Tage
  • Wassertemperatur
  • Satellitenkarten
  • Wetterkarte
  • Widgets
  • user-avatar
    Anmelden

    Stündliche Wetter Melbourne

    Heute, 23 Februar, Samstag

    Zeit Temperatur Niederschläge Wind Luftdruck Luftfeuchtigkeit
    00:00 +17°C° 0 mm 3 m/S 766 mmHg 82%
    01:00 +17°C° 0 mm 3 m/S 766 mmHg 83%
    02:00 +16°C° 0 mm 3 m/S 766 mmHg 83%
    03:00 +16°C° 0 mm 3 m/S 766 mmHg 83%
    04:00 +17°C° 0 mm 2 m/S 766 mmHg 80%
    05:00 +17°C° 0 mm 2 m/S 766 mmHg 80%
    06:00 +17°C° 0 mm 2 m/S 766 mmHg 81%
    07:00 +16°C° 0 mm 2 m/S 766 mmHg 81%
    08:00 +18°C° 0 mm 2 m/S 767 mmHg 72%
    09:00 +20°C° 0 mm 2 m/S 767 mmHg 64%
    10:00 +23°C° 0 mm 2 m/S 767 mmHg 52%
    11:00 +25°C° 0 mm 2 m/S 767 mmHg 47%
    12:00 +26°C° 0 mm 3 m/S 766 mmHg 42%
    13:00 +28°C° 0 mm 3 m/S 766 mmHg 36%
    14:00 +28°C° 0 mm 4 m/S 766 mmHg 36%
    15:00 +28°C° 0 mm 4 m/S 766 mmHg 36%
    16:00 +28°C° 0 mm 4 m/S 765 mmHg 37%
    17:00 +27°C° 0 mm 4 m/S 766 mmHg 40%
    18:00 +26°C° 0 mm 4 m/S 766 mmHg 42%
    19:00 +26°C° 0 mm 4 m/S 766 mmHg 44%
    20:00 +23°C° 0 mm 4 m/S 766 mmHg 50%
    21:00 +22°C° 0 mm 4 m/S 767 mmHg 55%
    22:00 +20°C° 0 mm 4 m/S 767 mmHg 60%
    23:00 +19°C° 0 mm 3 m/S 767 mmHg 64%

    Morgen, 24 Februar, Sonntag

    Zeit Temperatur Niederschläge Wind Luftdruck Luftfeuchtigkeit
    00:00 +19°C° 0 mm 3 m/S 767 mmHg 67%
    01:00 +18°C° 0 mm 2 m/S 767 mmHg 71%
    02:00 +18°C° 0 mm 2 m/S 767 mmHg 72%
    03:00 +17°C° 0 mm 2 m/S 767 mmHg 73%
    04:00 +18°C° 0 mm 1 m/S 767 mmHg 74%
    05:00 +17°C° 0 mm 2 m/S 768 mmHg 72%
    06:00 +18°C° 0 mm 2 m/S 768 mmHg 69%
    07:00 +18°C° 0 mm 2 m/S 768 mmHg 67%
    08:00 +21°C° 0 mm 2 m/S 768 mmHg 58%
    09:00 +25°C° 0 mm 3 m/S 768 mmHg 49%
    10:00 +27°C° 0 mm 3 m/S 768 mmHg 41%
    11:00 +29°C° 0 mm 3 m/S 768 mmHg 36%
    12:00 +31°C° 0 mm 2 m/S 768 mmHg 31%
    13:00 +34°C° 0 mm 2 m/S 767 mmHg 26%
    14:00 +35°C° 0 mm 2 m/S 767 mmHg 24%
    15:00 +36°C° 0 mm 2 m/S 766 mmHg 23%
    16:00 +35°C° 0 mm 1 m/S 765 mmHg 22%
    17:00 +35°C° 0 mm 2 m/S 766 mmHg 24%
    18:00 +33°C° 0 mm 3 m/S 766 mmHg 26%
    19:00 +30°C° 0 mm 3 m/S 766 mmHg 29%
    20:00 +29°C° 0 mm 3 m/S 766 mmHg 32%
    21:00 +27°C° 0 mm 3 m/S 766 mmHg 36%
    22:00 +26°C° 0 mm 2 m/S 767 mmHg 40%
    23:00 +25°C° 0 mm 2 m/S 767 mmHg 40%

    übermorgen, 25 Februar, Montag

    Zeit Temperatur Niederschläge Wind Luftdruck Luftfeuchtigkeit
    00:00 +25°C° 0 mm 2 m/S 766 mmHg 41%
    01:00 +24°C° 0 mm 2 m/S 766 mmHg 41%
    02:00 +24°C° 0 mm 3 m/S 766 mmHg 40%
    03:00 +23°C° 0 mm 4 m/S 766 mmHg 39%
    04:00 +23°C° 0 mm 5 m/S 766 mmHg 38%
    05:00 +23°C° 0 mm 5 m/S 767 mmHg 38%
    06:00 +23°C° 0 mm 6 m/S 767 mmHg 39%
    07:00 +22°C° 0 mm 6 m/S 767 mmHg 40%
    08:00 +24°C° 0 mm 6 m/S 767 mmHg 37%
    09:00 +27°C° 0 mm 6 m/S 768 mmHg 34%
    10:00 +28°C° 0 mm 6 m/S 768 mmHg 31%
    11:00 +30°C° 0 mm 5 m/S 767 mmHg 28%
    12:00 +33°C° 0 mm 4 m/S 767 mmHg 25%
    13:00 +35°C° 0 mm 4 m/S 766 mmHg 21%
    14:00 +36°C° 0 mm 3 m/S 765 mmHg 20%
    15:00 +36°C° 0 mm 2 m/S 765 mmHg 19%
    16:00 +36°C° 0 mm 1 m/S 764 mmHg 17%
    17:00 +35°C° 0 mm 1 m/S 764 mmHg 20%
    18:00 +34°C° 0 mm 2 m/S 764 mmHg 22%
    19:00 +32°C° 0 mm 2 m/S 764 mmHg 24%
    20:00 +30°C° 0 mm 2 m/S 765 mmHg 26%
    21:00 +29°C° 0 mm 2 m/S 765 mmHg 29%
    22:00 +27°C° 0 mm 1 m/S 765 mmHg 31%
    23:00 +27°C° 0 mm 1 m/S 765 mmHg 33%

    26 Februar, Dienstag

    Zeit Temperatur Niederschläge Wind Luftdruck Luftfeuchtigkeit
    00:00 +26°C° 0 mm 1 m/S 764 mmHg 35%
    01:00 +25°C° 0 mm 2 m/S 764 mmHg 37%
    02:00 +25°C° 0 mm 2 m/S 764 mmHg 37%
    03:00 +25°C° 0 mm 2 m/S 764 mmHg 37%
    04:00 +24°C° 0 mm 2 m/S 763 mmHg 37%
    05:00 +24°C° 0 mm 2 m/S 764 mmHg 37%
    06:00 +24°C° 0 mm 1 m/S 764 mmHg 37%
    07:00 +24°C° 0 mm 1 m/S 764 mmHg 37%
    08:00 +26°C° 0 mm 2 m/S 765 mmHg 35%
    09:00 +28°C° 0 mm 2 m/S 765 mmHg 33%
    10:00 +30°C° 0 mm 2 m/S 765 mmHg 31%
    11:00 +30°C° 0 mm 3 m/S 765 mmHg 33%
    12:00 +32°C° 0 mm 4 m/S 765 mmHg 34%
    13:00 +32°C° 0 mm 4 m/S 764 mmHg 35%
    14:00 +30°C° 0 mm 5 m/S 764 mmHg 39%
    15:00 +29°C° 0 mm 5 m/S 764 mmHg 43%
    16:00 +28°C° 0 mm 5 m/S 763 mmHg 46%
    17:00 +27°C° 0 mm 5 m/S 764 mmHg 51%
    18:00 +25°C° 0 mm 4 m/S 764 mmHg 56%
    19:00 +22°C° 0 mm 4 m/S 764 mmHg 61%
    20:00 +21°C° 0 mm 3 m/S 765 mmHg 62%
    21:00 +20°C° 0 mm 3 m/S 765 mmHg 63%
    22:00 +19°C° 0 mm 3 m/S 766 mmHg 65%
    23:00 +19°C° 0 mm 2 m/S 766 mmHg 66%

    27 Februar, Mittwoch

    Zeit Temperatur Niederschläge Wind Luftdruck Luftfeuchtigkeit
    00:00 +18°C° 0 mm 2 m/S 766 mmHg 68%
    01:00 +18°C° 0 mm 2 m/S 765 mmHg 70%
    02:00 +17°C° 0 mm 2 m/S 765 mmHg 71%
    03:00 +18°C° 0 mm 1 m/S 765 mmHg 73%
    04:00 +18°C° 0 mm 1 m/S 765 mmHg 75%
    05:00 +18°C° 0 mm 1 m/S 765 mmHg 75%
    06:00 +18°C° 0 mm 1 m/S 765 mmHg 74%
    07:00 +18°C° 0 mm 1 m/S 765 mmHg 74%
    08:00 +21°C° 0 mm 1 m/S 765 mmHg 64%
    09:00 +23°C° 0 mm 0 m/S 765 mmHg 53%
    10:00 +26°C° 0 mm 0 m/S 765 mmHg 43%
    11:00 +30°C° 0 mm 1 m/S 765 mmHg 36%
    12:00 +33°C° 0 mm 1 m/S 764 mmHg 30%
    13:00 +37°C° 0 mm 2 m/S 764 mmHg 23%
    14:00 +37°C° 0 mm 2 m/S 763 mmHg 23%
    15:00 +37°C° 0 mm 3 m/S 763 mmHg 23%
    16:00 +37°C° 0 mm 3 m/S 762 mmHg 23%
    17:00 +35°C° 0 mm 3 m/S 763 mmHg 28%
    18:00 +33°C° 0 mm 3 m/S 763 mmHg 34%
    19:00 +30°C° 0 mm 3 m/S 763 mmHg 39%
    20:00 +29°C° 0 mm 2 m/S 763 mmHg 44%
    21:00 +28°C° 0 mm 1 m/S 764 mmHg 49%
    22:00 +26°C° 0 mm 1 m/S 764 mmHg 54%
    23:00 +26°C° 0 mm 1 m/S 764 mmHg 55%

    28 Februar, Donnerstag

    Zeit Temperatur Niederschläge Wind Luftdruck Luftfeuchtigkeit
    00:00 +25°C° 0 mm 1 m/S 764 mmHg 56%
    01:00 +23°C° 0 mm 0 m/S 763 mmHg 56%
    02:00 +25°C° 0 mm 1 m/S 763 mmHg 52%
    03:00 +25°C° 0 mm 2 m/S 763 mmHg 48%
    04:00 +25°C° 0 mm 3 m/S 763 mmHg 43%
    05:00 +26°C° 0 mm 4 m/S 763 mmHg 44%
    06:00 +27°C° 0 mm 6 m/S 764 mmHg 44%
    07:00 +27°C° 0 mm 7 m/S 764 mmHg 44%
    08:00 +29°C° 0 mm 7 m/S 764 mmHg 40%
    09:00 +32°C° 0 mm 7 m/S 764 mmHg 36%
    10:00 +34°C° 0 mm 7 m/S 764 mmHg 32%
    11:00 +35°C° 0 mm 7 m/S 764 mmHg 29%
    12:00 +38°C° 0 mm 6 m/S 763 mmHg 25%
    13:00 +40°C° 0 mm 5 m/S 763 mmHg 21%
    14:00 +40°C° 0 mm 5 m/S 762 mmHg 19%
    15:00 +41°C° 0 mm 4 m/S 762 mmHg 17%
    16:00 +42°C° 0 mm 3 m/S 762 mmHg 15%
    17:00 +39°C° 0 mm 3 m/S 762 mmHg 17%
    18:00 +38°C° 0 mm 2 m/S 762 mmHg 19%
    19:00 +36°C° 0 mm 2 m/S 762 mmHg 20%
    20:00 +35°C° 0 mm 2 m/S 763 mmHg 24%
    21:00 +32°C° 0 mm 2 m/S 763 mmHg 27%
    22:00 +30°C° 0 mm 2 m/S 763 mmHg 30%
    23:00 +30°C° 0 mm 2 m/S 763 mmHg 32%
    Mehr zeigen